#timestamp,LO_Frequency,Hit,StdDev 
1456819215.1,286046996.7,N
1456819216.0,286046996.7,N
1456819235.8,286047000.3,N
1456819255.6,286047000.9,N
1456819275.5,286047001.5,N
1456819295.3,286047005.7,N
1456819315.1,286047006.9,N
1456819335.9,286047003.5,N
1456819355.7,286047003.6,N
1456819375.5,286047004.1,N
1456819395.4,286047004.0,N
1456819415.2,286047003.4,N
1456819435.0,286047005.1,N
1456819435.9,286047005.1,N
1456819455.7,286047007.4,N
1456819475.6,286047002.2,N
1456819495.4,286047001.6,N
1456819515.2,286047004.3,N
1456819535.1,286047003.7,N
1456819536.0,286047003.7,N
1456819555.8,286047007.9,N
1456819575.6,286047007.6,N
1456819595.5,286047004.0,N
1456819615.3,286047001.6,N
1456819635.1,286047000.0,N
1456819655.9,286047000.7,N
1456819675.7,286046995.3,N
1456819695.5,286046995.2,N
1456819715.4,286046995.8,N
1456819735.2,286046994.3,N
1456819755.0,286046990.9,N
1456819755.9,286046990.9,N
1456819775.8,286046991.6,N
1456819795.6,286046991.0,N
1456819815.4,286046993.2,N
1456819835.2,286046995.3,N
1456819855.1,286046996.2,N
1456819856.0,286046996.2,N
1456819875.8,286046997.8,N
1456819895.6,286046997.2,N
1456819915.5,286046998.1,N
1456819935.3,286047003.9,N
1456819955.1,286047005.6,N
1456819975.9,286047007.3,N
1456819995.7,286047007.7,N
1456820015.5,286047010.3,N
1456820035.4,286047007.7,N
1456820055.2,286047010.4,N
1456820075.0,286047013.8,N
1456820075.9,286047013.8,N
1456820095.8,286047014.4,N
1456820115.6,286047016.1,N
1456820135.4,286047016.0,N
1456820155.3,286047019.4,N
1456820175.1,286047021.0,N
1456820176.0,286047021.0,N
1456820195.8,286047023.8,N
1456820215.6,286047027.2,N
1456820235.5,286047026.3,N
1456820255.3,286047022.5,N
1456820275.1,286047023.8,N
1456820295.9,286047026.8,N
1456820315.7,286047025.8,N
1456820335.5,286047026.8,N
1456820355.4,286047026.2,N
1456820375.2,286047027.9,N
1456820395.0,286047026.4,N
1456820395.9,286047026.4,N
1456820415.8,286047027.3,N
1456820435.6,286047023.7,N
1456820455.4,286047025.1,N
1456820475.3,286047023.7,Y
1456820495.1,286046998.7,P
1456820496.0,286046998.7,N
1456820515.8,286046997.7,N
1456820535.7,286046995.0,N
1456820555.5,286046992.2,N
1456820575.3,286046989.9,N
1456820595.2,286046988.0,N
1456820615.9,286046988.8,N
1456820635.7,286046992.5,N
1456820655.5,286046992.5,N
1456820675.4,286046992.5,N
1456820695.2,286046994.5,N
1456820715.0,286046995.8,N
1456820715.9,286046995.8,N
1456820735.8,286046996.5,N
1456820755.6,286046996.7,N
1456820775.4,286046996.3,N
1456820795.3,286046993.8,N
1456820815.1,286046995.0,N
1456820816.0,286046995.0,N
1456820835.8,286046993.3,N
1456820855.7,286046992.4,N
1456820875.5,286046990.5,N
1456820895.3,286046991.0,N
1456820915.2,286046988.5,N
1456820935.9,286046989.6,N
1456820955.7,286046987.9,N
1456820975.5,286046988.4,N
1456820995.4,286046987.9,N
1456821015.2,286046987.7,N
1456821035.0,286046982.7,Y
1456821036.0,286046982.7,P
1456821055.8,286046991.1,N
1456821075.6,286046991.5,N
1456821095.5,286046985.9,Y
1456821115.3,286046990.5,P
1456821135.1,286046986.8,P
1456821155.9,286046981.4,P
1456821175.7,286046976.5,Y
1456821195.5,286046988.9,P
1456821215.4,286046987.8,P
1456821235.2,286046984.8,P
1456821255.0,286046982.4,Y
1456821255.9,286046982.4,P
1456821275.8,286046995.5,N
1456821295.6,286046991.9,N
1456821315.4,286046994.0,N
1456821335.2,286046993.3,N
1456821355.1,286046993.8,N
1456821356.0,286046993.8,N
1456821375.8,286046991.9,N
1456821395.6,286046990.4,N
1456821415.5,286046995.6,N
1456821435.3,286046995.7,N
1456821455.1,286046995.1,N
1456821475.9,286046998.4,N
1456821495.7,286047000.8,N
1456821515.5,286046994.9,N
1456821535.4,286046997.5,N
1456821555.2,286046997.9,N
1456821575.0,286046997.5,N
1456821575.9,286046997.5,N
1456821595.8,286046995.0,N
1456821615.6,286046994.2,N
1456821635.4,286046997.9,N
1456821655.2,286046994.9,N
1456821675.1,286046995.1,N
1456821676.0,286046995.1,N
1456821695.8,286046994.0,N
1456821715.6,286046995.8,N
1456821735.5,286046995.0,N
1456821755.3,286046997.5,N
1456821775.1,286047001.0,N
1456821795.9,286047000.1,N
1456821815.7,286047002.4,N
1456821835.5,286047003.9,N
1456821855.4,286047003.2,N
1456821875.2,286047007.1,N
1456821895.0,286047009.1,N
1456821895.9,286047009.1,N
1456821915.8,286047006.1,N
1456821935.6,286047006.5,N
1456821955.4,286047010.5,N
1456821975.2,286047008.9,N
1456821995.1,286047006.6,N
1456821996.0,286047006.6,N
1456822015.8,286047007.8,N
1456822035.6,286047009.6,N
1456822055.5,286047011.0,N
1456822075.3,286047015.3,N
1456822095.1,286047013.3,N
1456822115.9,286047011.3,N
1456822135.7,286047012.1,N
1456822155.5,286047010.5,N
1456822175.4,286047012.2,N
1456822195.2,286047011.7,N
1456822215.0,286047015.0,N
1456822215.9,286047015.0,N
1456822235.8,286047011.9,N
1456822255.6,286047013.6,N
1456822275.4,286047015.5,Y
1456822295.3,286047006.6,P
1456822315.1,286047006.1,P
1456822316.0,286047006.1,P
1456822335.8,286047007.9,Y
1456822355.7,286047001.3,P
1456822375.5,286047002.4,N
1456822395.3,286047004.1,N
1456822415.2,286047008.0,Y
1456822435.9,286047006.2,P
1456822455.7,286047004.7,P
1456822475.6,286047008.9,P
1456822495.4,286047012.3,Y
1456822515.2,286047006.1,P
1456822535.1,286047013.1,P
1456822536.0,286047013.1,P
1456822555.8,286047013.6,Y
1456822575.6,286047002.3,P
1456822595.5,286047003.5,N
1456822615.3,286047002.9,N
1456822635.1,286047007.4,N
1456822655.9,286047007.3,N
1456822675.7,286047008.2,Y
1456822695.5,286047003.4,P
1456822715.4,286047005.2,P
1456822735.2,286047003.6,P
1456822755.0,286047002.6,N
1456822755.9,286047002.6,N
1456822775.8,286047002.8,N
1456822795.6,286047002.1,N
